Regional Weather Roundup
Issued by NWS New Orleans/Baton Rouge, LA

Home | Current Version | Previous Version | Graphics & Text | Print | Product List | Glossary On
Versions: 1 2 3 4 5 6 7 8 9 10 11 12 13 14 15 16 17 18 19 20 21 22 23 24 25 26 27 28 29 30 31 32 33 34 35 36 37 38 39 40 41 42 43 44 45 46 47 48 49 50
539
ASUS44 KLIX 061410
RWRLIX
NEW ORLEANS REGIONAL WEATHER ROUNDUP
NATIONAL WEATHER SERVICE NEW ORLEANS LA
800 AM CST FRI MAR 06 2015

NOTE: "FAIR" INDICATES FEW OR NO CLOUDS BELOW 12,000 FEET WITH NO
      SIGNIFICANT WEATHER AND/OR OBSTRUCTIONS TO VISIBILITY.
      SKY/WX - SKY CONDITION AND SIGNIFICANT WEATHER.
      TMP - AIR TEMPERATURE.     DP    - DEWPOINT TEMPERATURE.
      RH  - RELATIVE HUMIDITY.   PRES  - PRESSURE.
      HI  - HEAT INDEX.          WCI   - WIND CHILL INDEX.

*  THESE STATIONS ARE NOT NWS OR FAA STATIONS AND ARE NOT UNDER
   NWS QUALITY CONTROL.

LAZ038-040-048-061>063-065>067-069-061500-
SOUTHEAST LOUISIANA

CITY           SKY/WX    TMP DP  RH WIND       PRES   REMARKS
N.O. AUDUBON     N/A     36  26  67 MISG        N/A
N.O. INTL ARPT MOSUNNY   33  23  66 N18G24    30.49R WCI  22
N.O. LAKEFRONT SUNNY     35  24  64 N21G29    30.50R WCI  24
SLIDELL        SUNNY     32  19  58 N17       30.48R WCI  21
BATON ROUGE    MOSUNNY   29  15  56 N8        30.54R WCI  21
BOOTHVILLE     SUNNY     39  29  67 N10G21    30.44R WCI  32
BELLE CHASSE   PTSUNNY   35  21  56 N9G21     30.47R WCI  28
BOGALUSA*        N/A     30  20  65 N7G18     30.53R WCI  24
GALLIANO*      SUNNY     38  27  66 N15G24    30.46S WCI  29
NEW ROADS*       N/A     30  14  51 N12       30.56S WCI  20
GONZALES*        N/A     31  16  54 MISG      30.52S
HAMMOND*       MOSUNNY   30  18  59 N10G18    30.53R WCI  21
HOUMA*         MOSUNNY   32  23  69 N13G21    30.48R WCI  22
PORT FOURCHON* SUNNY     37  27  65 N14G23    30.49R WCI  29

$$

MSZ070-080>082-061500-
SOUTHERN MISSISSIPPI

CITY           SKY/WX    TMP DP  RH WIND       PRES   REMARKS
MCCOMB         SUNNY     26  15  63 N13G21    30.52R WCI  15
GULFPORT       SUNNY     31  18  58 N17       30.46R WCI  19
BILOXI         SUNNY     31  19  61 N14G21    30.45R WCI  21
PASCAGOULA     SUNNY     31  18  58 N17G24    30.45R WCI  19
STENNIS ARPT*  SUNNY     30  16  55 N12G21    30.48R WCI  21

$$

COASTAL OBSERVATIONS
LAKE AND NEARSHORE STATIONS

STATION/POSITION TIME  TEMP    WIND        PRES    WAVE
                       AIR SEA DIR/SP/G            HT/PER
                 (UTC) (F)     (DEG/KT/KT) (MB)    (FT/S)
PASCAGOULA       1400   30     360/ 16/ 23 1030.3
WAVELAND YACHT   1400   30 45   10/ 17/ 21 1031.4
GRAND ISLE       1400   36 54   20/ 14/ 23 1031.4
SOUTHWEST PASS   1400   41 42   20/ 20/ 22 1030.5
NEW CANAL        1400           10/ 18/ 23 1032.5
SHELL BEACH      1400   33 52  360/ 18/ 22 1031.5

OFFSHORE STATIONS

STATION/POSITION TIME  TEMP    WIND        PRES    WAVE
                       AIR SEA DIR/SP/G            HT/PER
                 (UTC) (F)     (DEG/KT/KT) (MB)    (FT/S)
64 S DAUPHIN ISL 1341   43 67   20/ 19/ 23 1029.3    6/ 6

$$




USA.gov is the U.S. government's official web portal to all federal, state and local government web resources and services.